Regional Weather Roundup
Issued by NWS Mobile, AL

Home | Current Version | Previous Version | Text Only | Print | Product List | Glossary On
Versions: 1 2 3 4 5 6 7 8 9 10 11 12 13 14 15 16 17 18 19 20 21 22 23 24 25 26 27 28 29 30 31 32 33 34 35 36 37 38 39 40 41 42 43 44 45 46 47 48 49 50
000
ASUS44 KMOB 060816
RWRMOB
REGIONAL WEATHER ROUNDUP
NATIONAL WEATHER SERVICE MOBILE AL
300 AM CDT WED MAY 06 2015

ALZ061>064-060900-
COASTAL ALABAMA


CITY           SKY/WX    TMP DP  RH WIND       PRES   REMARKS
MOBILE REG APT CLEAR     63  61  93 CALM      30.10F
BROOKLEY FIELD CLEAR     66  63  90 CALM      30.12F
GULF SHORES    SUNNY     62  61  99 CALM      30.10F

$$

ALZ051>060-060900-
INTERIOR SOUTHWEST AND SOUTH CENTRAL ALABAMA


CITY           SKY/WX    TMP DP  RH WIND       PRES   REMARKS
ANDALUSIA/OPP  CLEAR     65  55  70 CALM      30.14F
EVERGREEN      CLEAR     56  54  93 CALM      30.13F
FLORALA        SUNNY     63  56  78 E3        30.15F
GREENVILLE     FAIR      58  53  84 CALM      30.14F

$$

FLZ001>006-060900-
WESTERN FLORIDA PANHANDLE


CITY           SKY/WX    TMP DP  RH WIND       PRES   REMARKS
CRESTVIEW      CLEAR     59  57  93 CALM      30.14F
DESTIN         CLEAR     70  65  84 NE5       30.11F
DUKE FIELD     FAIR      60  57  92 CALM      30.11F
MARY ESTHER    PTCLDY    65  61  88 CALM      30.10F
MILTON         MOSUNNY   65  60  84 NE5       30.11F
PENSACOLA      CLEAR     67  64  90 NE6       30.10F
NAS PENSACOLA  CLEAR     64  64 100 CALM      30.09F
VALPARAISO     PTCLDY    65  60  86 CALM      30.11F

$$

...MARINE OBSERVATIONS...

STATION/POSITION TIME  SKY/WX   TEMP    WIND        PRES    VSBY
                                AIR SEA DIR/SP/G
                 (UTC)          (F)     (DEG/KT/KT) (MB)    (MI)
PASCAGOULA       0700            72      90/  4/  6 1019.1F
PETIT BOIS ISL   0700            73     110/ 10/ 12 1019.6F
E DAUPHIN ISLAND 0800            73      90/  8/  9 1018.6F
MIDDLE BAY LIGHT 0700            70      70/  6     1018.6F
USCG MOBILE BAY  0700            69 75   10/  2/  3 1018.9F
STATE DOCKS      0700            68 71              1019.7F
MEAHER PARK      0800            67      10/  2     1019.3F
FORT MORGAN      0700            73     140/ 11/ 12 1019.0F
12 S ORANGE BCH  0750            74 74   90/  8/ 10 1018.3F
WVE H/P(F/S)=  4/ 7

PENSACOLA BAY    0700            73 77   50/  3/  5 1020.0F
64 S DAUPHIN ISL 0750            74 75  110/ 14/ 16 1018.4F
WVE H/P(F/S)=  5/ 7

67 S FORT MORGAN 0730            73                   N/A
115 SE PENSACOLA 0750            74 75  100/ 17/ 21 1018.2F
WVE H/P(F/S)=  4/ 5

MID GULF/42001   0750            78 79  100/ 17/ 21 1015.4F
WVE H/P(F/S)=  5/ 5

EAST GULF/42003  0750            77 81  100/ 10/ 12 1016.3F
WVE H/P(F/S)=  4/ 6


$$

...NEARBY LOCATIONS

CITY           SKY/WX    TMP DP  RH WIND       PRES   REMARKS
GULFPORT       PTCLDY    66  62  87 CALM      30.08F
BILOXI         CLEAR     67  65  96 E6        30.08F
PASCAGOULA     CLEAR     60  59  96 CALM      30.09F
HATTIESBURG    CLEAR     59  57  93 CALM      30.11F
LAUREL         CLEAR     57  54  88 CALM      30.12F
MERIDIAN       CLEAR     57  54  89 CALM      30.13F
MERIDIAN NAS   CLEAR     57  54  89 CALM      30.13F
MONTGOMERY     PTCLDY    60  55  83 CALM      30.15F
MAXWELL AFB    MOCLDY    60  56  86 N3        30.14F
TROY           CLEAR     59  54  83 CALM      30.16F
FORT RUCKER    PTCLDY    59  56  89 NE3       30.14F
DALEVILLE      PTCLDY    62  56  83 NE6       30.14F
DOTHAN         CLEAR     66  58  75 E6        30.18F

$$

...OTHER SURROUNDING LOCATIONS...

CITY           SKY/WX    TMP DP  RH WIND       PRES   REMARKS
BIRMINGHAM     CLEAR     58  55  90 CALM      30.19F
TUSCALOOSA     CLEAR     60  56  86 CALM      30.15F
COLUMBUS GA    CLEAR     62  52  69 CALM      30.18F
PANAMA CITY    NOT AVBL
TALLAHASSEE    CLEAR     67  60  78 NE5       30.13F
BATON ROUGE    CLEAR     62  60  93 CALM      30.06F
NEW ORLEANS    PTCLDY    69  64  84 CALM      30.06F
SLIDELL        CLEAR     61  59  93 NE3       30.06F
JACKSON        CLEAR     61  57  87 CALM      30.10F
MCCOMB         CLEAR     62  58  86 E3        30.09F

$$

...SURROUNDING MARINE OBSERVATIONS...

STATION/POSITION TIME  SKY/WX   TEMP    WIND        PRES    VSBY
                                AIR SEA DIR/SP/G
                 (UTC)          (F)     (DEG/KT/KT) (MB)    (MI)
WAVELAND         0700            74 75  120/ 11/ 14 1018.8F
PASCAGOULA RGN A 0700            74     120/ 12/ 16 1018.8F
PASCAGOULA PORT  0700               78                N/A
GRAND ISLE       0700            73 76  120/  7/ 13 1017.7F
SOUTHWEST PASS   0800            74     120/ 16/ 18 1017.3F
PILOT STATION E  0700            73 67  110/ 17/ 20 1018.3F
SHELL BEACH      0700            73 76  110/ 11/ 12 1017.8F
PANAMA CITY      0700            71 76   80/  3/  8 1019.4F
APALACHICOLA     0700            72 71   90/ 12/ 16 1019.5F
TYNDALL TOWER C  0800            71      80/ 18/ 20 1018.8F
S APLCHCLA/42036 0750            74 75   80/ 16/ 17 1018.4F
WVE H/P(F/S)=  4/ 5


$$




USA.gov is the U.S. government's official web portal to all federal, state and local government web resources and services.